Location: Adaghas
(31.2259°N, 9.0496°W)
Time: 03:50:40
(UTC+00:00)

Cosmos 1125 Rocket - Pass Details

Date: 18 September 2020
Orbit: 757 x 780 km, 74.0° (Epoch: 23 October)

Event Time Altitude Azimuth Distance (km) Brightness Sun altitude
Rises 20:32:49 0° 197° (SSW) 3,234 6.7 -25.0°
Reaches altitude 10° 20:35:10 10° 198° (SSW) 2,313 6.0 -25.5°
Maximum altitude 20:40:26 83° 286° (WNW) 787 3.5 -26.6°
Drops below altitude 10° 20:45:46 10° 14° (NNE) 2,334 6.0 -27.7°
Sets 20:48:09 0° 16° (NNE) 3,266 6.8 -28.1°
